Preview of NWS' New Version of Forecast
This preview is not operational and should not be used for support decisions.

Regional Weather Roundup (RWR)

Issued by National Weather Service (NWS)

                            
000
ASUS46 KSEW 231910
RWRWA 

WASHINGTON REGIONAL WEATHER ROUNDUP
NATIONAL WEATHER SERVICE SEATTLE WA
1200 PM PDT TUE APR 23 2019

NOTE:"FAIR" INDICATES FEW OR NO CLOUDS BELOW 12,000 FEET WITH NO 
SIGNIFICANT WEATHER AND/OR OBSTRUCTIONS TO VISIBILITY.

WAZ507-509-555>559-232000-
SEATTLE, TACOMA, EVERETT, AND VICINITY
  
CITY           SKY/WX    TMP DP  RH WIND       PRES   REMARKS
EVERETT        CLOUDY    49  47  93 N9        30.20S FOG              
BOEING FIELD   PTSUNNY   59  48  67 S9        30.18F                  
RENTON         CLOUDY    60  49  66 S9        30.18F                  
SEATAC AIRPORT PTSUNNY   58  49  72 S14       30.19S                  
JBLM-MCCHORD   CLOUDY    55  55 100 W8        30.19F                  
PUYALLUP       DRIZZLE   57  52  82 SW9       30.20S                  
BREMERTON      NOT AVBL                                               
JBLM-FT LEWIS  PTSUNNY   57  55  91 SW8       30.19S                  
TACOMA NARROWS PTSUNNY   56  48  74 S8        30.19F                  
$$
 
WAZ001-503-506-510-514-515-232000-
NORTH INTERIOR
  
CITY           SKY/WX    TMP DP  RH WIND       PRES   REMARKS
BELLINGHAM     CLOUDY    53  46  77 S8        30.18S                  
FRIDAY HARBOR  SUNNY     58  44  60 SW12      30.18S                  
EASTSOUND      PTSUNNY   57  45  62 W3        30.17R                  
PORT ANGELES   CLOUDY    48  44  86 W17G24    30.22R                  
EDIZ HOOK      CLOUDY    49  44  82 W16       30.21S                  
PORT TOWNSEND  CLOUDY    52  46  82 VRB6G12   30.20R                  
NAS WHIDBEY    CLOUDY    56  45  66 W12       30.23R                  
ARLINGTON      CLOUDY    52  48  87 NW6       30.21S                  
BURLINGTON       N/A    N/A N/A N/A MISG        N/A                   
$$
 
WAZ020-022-039-040-504-511-512-232000-
SOUTHWEST INTERIOR
  
CITY           SKY/WX    TMP DP  RH WIND       PRES   REMARKS
SHELTON        MOSUNNY   59  47  64 SW18G24   30.17S                  
OLYMPIA        CLOUDY    58  48  69 S16       30.19F                  
CHEHALIS       CLOUDY    59  52  77 W8        30.21F                  
KELSO          CLOUDY    56  50  80 NW9       30.24R                  
VANCOUVER      CLOUDY    60  51  72 S5        30.21F                  
SCAPPOOSE, OR  CLOUDY    65  54  67 VRB3      30.20F                  
PORTLAND, OR   PTSUNNY   63  51  65 N3        30.22S                  
$$
 
WAZ021-516-517-232000-
WASHINGTON COAST
  
CITY           SKY/WX    TMP DP  RH WIND       PRES   REMARKS
FORKS          CLOUDY    50  42  74 NW6       30.24R                  
HOQUIAM        CLOUDY    52  47  83 NW12      30.24R                  
ASTORIA, OR    LGT RAIN  52  49  89 NW12      30.25R                  
$$
 
WAZ019-023-024-040-567>569-232000-
CASCADE MOUNTAINS AND COLUMBIA GORGE
  
CITY           SKY/WX    TMP DP  RH WIND       PRES   REMARKS
STAMPEDE PASS  CLOUDY    42  39  89 VRB7G21   30.14S                  
TROUTDALE, OR  CLOUDY    58  53  84 E6        30.22S                  
HOOD RIVER, OR MOCLDY    61  50  67 MISG      30.17S                  
THE DALLES, OR MOSUNNY   65  51  60 NW22G30   30.14S                  
$$

WAZ026-027-041>044-520-521-232000-
EAST SLOPES
  
CITY           SKY/WX    TMP DP  RH WIND       PRES   REMARKS
OMAK           MOSUNNY   66  40  38 S7        29.99F                  
WENATCHEE      MOSUNNY   66  39  37 NW9       30.04S                  
ELLENSBURG     MOSUNNY   63  42  46 NW28G38   30.07F                  
YAKIMA         MOSUNNY   69  46  43 SE7       30.06F                  
SUNNYSIDE ARPT PTCLDY    68  50  52 S3        30.06F                  
YAKIMA TC      FAIR      67  42  39 W5        30.05F                  
$$

WAZ028-034-035-232000-
COLUMBIA BASIN
  
CITY           SKY/WX    TMP DP  RH WIND       PRES   REMARKS
EPHRATA        MOSUNNY   70  38  31 W15G28    30.03F                  
MOSES LAKE     MOSUNNY   70  41  34 S12       30.04F                  
PASCO          PTSUNNY   73  50  44 SW13      30.07F                  
RICHLAND ARPT  MOCLDY    73  51  45 SW9G16    30.06F                  
HERMISTON, OR  PTSUNNY   74  52  46 SW18      30.08F                  
$$

WAZ036>038-232000-
NORTHEAST WASHINGTON
  
CITY           SKY/WX    TMP DP  RH WIND       PRES   REMARKS
SPOKANE GEIGER PTSUNNY   61  45  55 SW14      30.05S                  
SPOKANE FELTS  PTSUNNY   64  45  49 S17G23    30.05S                  
FAIRCHILD AFB  PTSUNNY   60  49  68 SW17G24   30.04F                  
COEURDALENE,ID CLOUDY    62  45  53 SW16G24   30.05S                  
DEER PARK      PTSUNNY   63  43  48 SW16G22   30.03F                  
$$

WAZ029>033-232000-
SOUTHEAST WASHINGTON
  
CITY           SKY/WX    TMP DP  RH WIND       PRES   REMARKS
PULLMAN        CLOUDY    61  51  70 SW20      30.10F                  
LEWISTON, ID   CLOUDY    64  52  64 SE6       30.08F                  
WALLA WALLA    CLOUDY    68  50  52 SW13      30.10F                  
PENDLETON, OR  PTSUNNY   67  54  63 W17G23    30.11F                  
$$